This demonstration page uses our WeatherBlox Daily Observations layout. Learn more.

Left ArrowRight Arrow

Hourly Observations for March 7, 2017

Temp ( °F °C ) Dew Point ( °F °C ) Humidity (%) Winds ( mph kmh ) Pressure ( in mb ) Visibility ( mi km ) Precip ( " mm )
12:53 am 00:53 Mostly Cloudy 59 15 50 10 72 72 VRB 3 6 29.96 1015 10 16 N/A
1:53 am 01:53 Cloudy 61 16.1 49 9.4 65 65 S 9 15 29.95 1014 10 16 N/A
2:53 am 02:53 Cloudy 62 16.7 48 8.9 60 60 VRB 7 11 29.97 1015 10 16 N/A
3:53 am 03:53 Partly Cloudy 61 16.1 48 8.9 63 63 S 8 13 29.94 1014 10 16 N/A
4:53 am 04:53 Cloudy with Light Rain 62 16.7 49 9.4 62 62 S 10 17 29.92 1013 10 16 N/A
5:53 am 05:53 Mostly Cloudy 61 16.1 51 10.6 70 70 S 15 24 29.91 1013 10 16 0.01 0.25
6:53 am 06:53 Cloudy 58 14.4 53 11.7 84 84 S 8 13 29.92 1013 10 16 0.01 0.25
7:21 am 07:21 Cloudy with Heavy Rain 57 13.9 53 11.7 87 87 SW 14 22 29.97 1015 2 3 0.10 2.54
7:25 am 07:25 Cloudy with Heavy Rain 56 13.3 54 12.2 93 93 SW 10 17 29.97 1015 2 3 0.10 2.54
7:30 am 07:30 Cloudy with Light Rain 56 13.3 54 12.2 93 93 SSW 9 15 30.00 1016 3 5 0.12 3.05
7:53 am 07:53 Cloudy with Light Rain 56 13.3 54 12.2 93 93 SW 8 13 30.01 1016 5 8 0.14 3.56
8:09 am 08:09 Cloudy with Light Rain 56 13.3 54 12.2 93 93 SSW 10 17 30.00 1016 5 8 0.02 0.51
8:53 am 08:53 Cloudy with Light Rain 56 13.3 55 12.8 97 97 SSW 7 11 29.99 1016 6 10 0.04 1.02
9:53 am 09:53 Cloudy 57 13.9 55 12.8 93 93 SSW 8 13 29.99 1016 10 16 0.02 0.51
10:18 am 10:18 Cloudy with Light Rain 57 13.9 56 13.3 96 96 S 8 13 30.00 1016 10 16 N/A
10:53 am 10:53 Cloudy with Light Rain 58 14.4 56 13.3 93 93 SSW 8 13 29.99 1016 10 16 N/A
11:11 am 11:11 Cloudy with Light Rain 58 14.4 56 13.3 93 93 SSW 10 17 29.97 1015 9 14 N/A
11:35 am 11:35 Cloudy with Light Rain 57 13.9 55 12.8 93 93 SSW 9 15 29.97 1015 4 6 0.03 0.76
11:53 am 11:53 Cloudy with Rain 57 13.9 55 12.8 93 93 SSW 8 13 29.97 1015 4 6 0.05 1.27
12:39 pm 12:39 Cloudy 58 14.4 57 13.9 97 97 SSW 9 15 29.97 1015 10 16 0.02 0.51
12:49 pm 12:49 Cloudy with Light Rain 59 15 57 14 94 94 SW 10 17 29.94 1014 10 16 0.02 0.51
12:53 pm 12:53 Cloudy with Light Rain 59 15 57 13.9 93 93 SW 13 20 29.95 1014 10 16 0.02 0.51
1:53 pm 13:53 Cloudy with Light Rain 58 14.4 55 12.8 90 90 W 17 28 29.94 1014 5 8 0.01 0.25
2:00 pm 14:00 Cloudy with Rain 54 12.2 52 11.1 93 93 W 17 28 30.00 1016 2 3 0.02 0.51
2:05 pm 14:05 Cloudy with Light Rain 54 12.2 52 11.1 93 93 W 14 22 30.00 1016 2 3 0.03 0.76
2:15 pm 14:15 Cloudy with Light Rain 53 11.7 51 10.6 93 93 W 16 26 30.00 1016 3 4 0.04 1.02
2:32 pm 14:32 Cloudy with Light Rain 52 11.1 51 10.6 97 97 WSW 12 19 30.00 1016 3 5 0.05 1.27
2:41 pm 14:41 Cloudy with Light Rain 52 11.1 51 10.6 97 97 WSW 10 17 29.97 1015 4 6 0.06 1.52
2:53 pm 14:53 Cloudy 52 11.1 51 10.6 97 97 WSW 7 11 29.94 1014 7 11 0.06 1.52
3:45 pm 15:45 Cloudy with Light Rain 52 11.1 51 10.6 97 97 WSW 8 13 29.97 1015 4 6 N/A
3:53 pm 15:53 Cloudy with Light Rain 52 11.1 51 10.6 97 97 WSW 8 13 29.94 1014 4 6 N/A
4:04 pm 16:04 Cloudy with Light Rain 51 10.6 51 10.6 100 100 WSW 9 15 29.97 1015 3 4 0.01 0.25
4:29 pm 16:29 Cloudy with Light Rain 51 10.6 51 10.6 100 100 WSW 8 13 29.97 1015 3 5 0.02 0.51
4:41 pm 16:41 Cloudy 52 11.1 51 10.6 97 97 WSW 7 11 30.00 1016 10 16 0.02 0.51
4:53 pm 16:53 Cloudy with Light Rain 52 11.1 51 10.6 97 97 WSW 7 11 29.96 1014 10 16 0.02 0.51
5:41 pm 17:41 Cloudy 52 11.1 50 10 93 93 WNW 14 22 30.00 1016 10 16 N/A
5:53 pm 17:53 Cloudy 52 11.1 46 7.8 80 80 WNW 15 24 29.98 1015 10 16 N/A
6:53 pm 18:53 Mostly Cloudy 50 10 44 6.7 80 80 WNW 8 13 29.99 1016 10 16 N/A
7:53 pm 19:53 Mostly Clear 50 10 40 4.4 68 68 W 8 13 30.04 1017 10 16 N/A
8:53 pm 20:53 Clear 48 8.9 37 2.8 66 66 W 8 13 30.09 1019 10 16 N/A
9:53 pm 21:53 Mostly Clear 46 7.8 35 1.7 66 66 W 6 9 30.13 1020 10 16 N/A
10:53 pm 22:53 Clear 44 6.7 34 1.1 68 68 WSW 6 9 30.16 1021 10 16 N/A
11:53 pm 23:53 Clear 36 2.2 34 1.1 93 93 N N/A 30.16 1021 10 16 N/A

Powered by AerisWeather